Orange City, IA

1:06 AM CST on February 14, 2016 (GMT -0600)
Orange City Municipal

Weather History for KORC - November, 2011

Change the Weather History Date:

Sunday, November 6, 2011

  Actual Average Record
Temperature  
Mean Temperature 43 °F -  
Max Temperature 51 °F 47 °F 75 °F (1949)
Min Temperature 35 °F 30 °F 12 °F (2003)
Degree Days  
Heating Degree Days 22    
Moisture  
Dew Point 23 °F    
Average Humidity 45    
Maximum Humidity 75    
Minimum Humidity 16    
Precipitation  
Precipitation 0.00 in - - ()
Sea Level Pressure  
Sea Level Pressure 29.73 in    
Wind  
Wind Speed 18 mph (SW)    
Max Wind Speed 30 mph    
Max Gust Speed 34 mph    
Visibility 10 miles    
Events      
Averages and records for this station are not official NWS values.
T = Trace of Precipitation, MM = Missing Value Source: NWS Daily Summary

Daily Weather History Graph

Daily Weather History Graph

Search for Another Location

Airport or City:

Trip Planner

Search our weather history database for the weather conditions in past years. The results will help you decide how hot, cold, wet, or windy it might be!

Date:

Astronomy

Nov. 06, 2011 Rise Set
Actual Time 7:04 AM CST 5:10 PM CST
Civil Twilight 6:34 AM CST 5:40 PM CST
Nautical Twilight 6:01 AM CST 6:13 PM CST
Astronomical Twilight 5:27 AM CST 6:47 PM CST
Moon 2:59 PM CST (11/6) 3:07 AM CST (11/6)
Length of Visible Light 11h 05m
Length of Day
10h 05m
Waxing Gibbous, 86% of the Moon is Illuminated
Nov 6
Waxing Gibbous
Nov 10
Full
Nov 18
Last Quarter
Nov 25
New
Dec 2
First Quarter

Hourly Weather History & Observations

Time (CST) Temp. Windchill Dew Point Humidity Pressure Visibility Wind Dir Wind Speed Gust Speed Precip Events Conditions
12:15 AM 48.2 °F - 37.4 °F 66% 29.58 in 10.0 mi South 17.3 mph 25.3 mph N/A   Clear
12:35 AM 48.2 °F - 37.4 °F 66% 29.56 in 10.0 mi South 17.3 mph 24.2 mph N/A   Clear
12:55 AM 48.2 °F - 37.4 °F 66% 29.56 in 10.0 mi South 17.3 mph - N/A   Clear
1:15 AM 48.2 °F - 35.6 °F 62% 29.55 in 10.0 mi South 18.4 mph 25.3 mph N/A   Clear
1:35 AM 48.2 °F - 35.6 °F 62% 29.54 in 10.0 mi South 16.1 mph 24.2 mph N/A   Scattered Clouds
1:55 AM 48.2 °F - 35.6 °F 62% 29.54 in 10.0 mi South 17.3 mph 25.3 mph N/A   Scattered Clouds
1:15 AM 48.2 °F - 35.6 °F 62% 29.53 in 10.0 mi South 15.0 mph 23.0 mph N/A   Clear
1:35 AM 48.2 °F - 35.6 °F 62% 29.53 in 10.0 mi South 17.3 mph - N/A   Clear
1:55 AM 48.2 °F - 35.6 °F 62% 29.52 in 10.0 mi South 15.0 mph 23.0 mph N/A   Clear
2:15 AM 48.2 °F - 37.4 °F 66% 29.52 in 10.0 mi South 15.0 mph 19.6 mph N/A   Clear
2:35 AM 48.2 °F - 37.4 °F 66% 29.52 in 10.0 mi South 16.1 mph 19.6 mph N/A   Clear
2:55 AM 48.2 °F - 37.4 °F 66% 29.52 in 10.0 mi South 15.0 mph - N/A   Clear
3:15 AM 48.2 °F - 37.4 °F 66% 29.51 in 10.0 mi South 15.0 mph - N/A   Clear
3:35 AM 48.2 °F - 37.4 °F 66% 29.51 in 10.0 mi South 13.8 mph - N/A   Clear
3:55 AM 48.2 °F - 39.2 °F 71% 29.50 in 10.0 mi South 13.8 mph - N/A   Scattered Clouds
4:15 AM 48.2 °F - 37.4 °F 66% 29.51 in 10.0 mi South 17.3 mph 21.9 mph N/A   Clear
4:35 AM 48.2 °F - 37.4 °F 66% 29.51 in 10.0 mi South 18.4 mph 24.2 mph N/A   Clear
4:55 AM 50.0 °F - 37.4 °F 62% 29.52 in 10.0 mi SSW 21.9 mph 27.6 mph N/A   Clear
5:15 AM 48.2 °F - 37.4 °F 66% 29.51 in 10.0 mi SSW 23.0 mph 29.9 mph N/A   Clear
5:35 AM 48.2 °F - 37.4 °F 66% 29.52 in 10.0 mi SSW 18.4 mph - N/A   Clear
5:55 AM 48.2 °F - 39.2 °F 71% 29.54 in 10.0 mi SSW 15.0 mph - N/A   Clear
6:15 AM 50.0 °F - 39.2 °F 66% 29.55 in 10.0 mi WSW 20.7 mph 24.2 mph N/A   Mostly Cloudy
6:35 AM 44.6 °F 36.6 °F 35.6 °F 71% 29.57 in 10.0 mi West 19.6 mph 26.5 mph N/A   Overcast
6:55 AM 42.8 °F 33.8 °F 32.0 °F 66% 29.60 in 10.0 mi West 21.9 mph 27.6 mph N/A   Mostly Cloudy
7:15 AM 39.2 °F 28.5 °F 32.0 °F 75% 29.63 in 10.0 mi West 24.2 mph - N/A   Mostly Cloudy
7:35 AM 39.2 °F 28.7 °F 30.2 °F 70% 29.66 in 10.0 mi West 23.0 mph - N/A   Scattered Clouds
7:55 AM 41.0 °F 30.7 °F 32.0 °F 70% 29.68 in 10.0 mi West 25.3 mph 33.4 mph N/A   Mostly Cloudy
8:15 AM 39.2 °F 29.3 °F 30.2 °F 70% 29.70 in 10.0 mi West 20.7 mph - N/A   Scattered Clouds
8:55 AM 41.0 °F 31.9 °F 28.4 °F 61% 29.72 in 10.0 mi West 19.6 mph 26.5 mph N/A   Scattered Clouds
9:15 AM 42.8 °F 32.3 °F 26.6 °F 53% 29.73 in 10.0 mi West 29.9 mph - N/A   Scattered Clouds
9:35 AM 42.8 °F 33.5 °F 24.8 °F 49% 29.75 in 10.0 mi West 23.0 mph 33.4 mph N/A   Clear
9:55 AM 44.6 °F 35.3 °F 24.8 °F 46% 29.76 in 10.0 mi West 26.5 mph 32.2 mph N/A   Clear
10:15 AM 44.6 °F 35.5 °F 21.2 °F 39% 29.78 in 10.0 mi West 25.3 mph 32.2 mph N/A   Clear
10:35 AM 44.6 °F 35.5 °F 21.2 °F 39% 29.79 in 10.0 mi West 25.3 mph 29.9 mph N/A   Clear
10:55 AM 46.4 °F 37.5 °F 19.4 °F 34% 29.80 in 10.0 mi West 27.6 mph 34.5 mph N/A   Clear
11:15 AM 46.4 °F 38.3 °F 19.4 °F 34% 29.80 in 10.0 mi West 23.0 mph 31.1 mph N/A   Clear
11:35 AM 48.2 °F - 17.6 °F 30% 29.81 in 10.0 mi West 21.9 mph 29.9 mph N/A   Clear
11:55 AM 48.2 °F - 15.8 °F 27% 29.82 in 10.0 mi West 23.0 mph 32.2 mph N/A   Clear
12:15 PM 48.2 °F - 17.6 °F 30% 29.82 in 10.0 mi West 25.3 mph 32.2 mph N/A   Clear
12:35 PM 50.0 °F - 15.8 °F 26% 29.82 in 10.0 mi West 24.2 mph 29.9 mph N/A   Clear
12:55 PM 51.8 °F - 15.8 °F 24% 29.82 in 10.0 mi West 20.7 mph 33.4 mph N/A   Clear
1:15 PM 51.8 °F - 14.0 °F 22% 29.83 in 10.0 mi West 21.9 mph 34.5 mph N/A   Clear
1:35 PM 51.8 °F - 12.2 °F 21% 29.83 in 10.0 mi WSW 26.5 mph 31.1 mph N/A   Clear
1:55 PM 51.8 °F - 12.2 °F 21% 29.84 in 10.0 mi WSW 26.5 mph 31.1 mph N/A   Clear
2:15 PM 51.8 °F - 10.4 °F 19% 29.85 in 10.0 mi West 21.9 mph 28.8 mph N/A   Clear
2:35 PM 51.8 °F - 8.6 °F 18% 29.85 in 10.0 mi West 23.0 mph 28.8 mph N/A   Clear
2:55 PM 51.8 °F - 8.6 °F 18% 29.86 in 10.0 mi West 19.6 mph 23.0 mph N/A   Clear
3:15 PM 51.8 °F - 6.8 °F 16% 29.87 in 10.0 mi West 16.1 mph 20.7 mph N/A   Clear
3:35 PM 51.8 °F - 6.8 °F 16% 29.88 in 10.0 mi West 18.4 mph 24.2 mph N/A   Clear
3:55 PM 51.8 °F - 6.8 °F 16% 29.89 in 10.0 mi West 16.1 mph 20.7 mph N/A   Clear
4:15 PM 51.8 °F - 6.8 °F 16% 29.89 in 10.0 mi WSW 15.0 mph - N/A   Clear
4:35 PM 50.0 °F - 6.8 °F 17% 29.90 in 10.0 mi WSW 12.7 mph - N/A   Clear
4:55 PM 48.2 °F - 6.8 °F 19% 29.91 in 10.0 mi WSW 9.2 mph - N/A   Clear
5:15 PM 44.6 °F 40.2 °F 6.8 °F 21% 29.92 in 10.0 mi SW 8.1 mph - N/A   Clear
5:35 PM 44.6 °F 39.7 °F 6.8 °F 21% 29.93 in 10.0 mi SW 9.2 mph - N/A   Clear
5:55 PM 44.6 °F 39.7 °F 8.6 °F 23% 29.94 in 10.0 mi SW 9.2 mph - N/A   Clear
6:15 PM 44.6 °F 39.2 °F 8.6 °F 23% 29.94 in 10.0 mi SW 10.4 mph - N/A   Clear
6:35 PM 44.6 °F 38.8 °F 8.6 °F 23% 29.95 in 10.0 mi SW 11.5 mph - N/A   Clear
6:55 PM 42.8 °F 38.6 °F 8.6 °F 25% 29.96 in 10.0 mi SW 6.9 mph - N/A   Clear
7:15 PM 39.2 °F 34.2 °F 8.6 °F 28% 29.97 in 10.0 mi SSW 6.9 mph - N/A   Clear
7:35 PM 37.4 °F 31.4 °F 10.4 °F 33% 29.98 in 10.0 mi SSW 8.1 mph - N/A   Clear
7:55 PM 37.4 °F 32.1 °F 10.4 °F 33% 29.99 in 10.0 mi SSW 6.9 mph - N/A   Clear
8:15 PM 35.6 °F 29.2 °F 10.4 °F 35% 29.99 in 10.0 mi SSW 8.1 mph - N/A   Clear
8:35 PM 35.6 °F 29.9 °F 10.4 °F 35% 29.99 in 10.0 mi SSW 6.9 mph - N/A   Clear
8:55 PM 35.6 °F 30.7 °F 10.4 °F 35% 30.00 in 10.0 mi SSW 5.8 mph - N/A   Clear
9:15 PM 35.6 °F 29.9 °F 12.2 °F 38% 30.00 in 10.0 mi SSW 6.9 mph - N/A   Clear
9:35 PM 35.6 °F 29.9 °F 12.2 °F 38% 30.01 in 10.0 mi SSW 6.9 mph - N/A   Clear
9:55 PM 35.6 °F 29.2 °F 14.0 °F 41% 30.02 in 10.0 mi SSW 8.1 mph - N/A   Clear
10:35 PM 35.6 °F 27.5 °F 15.8 °F 44% 30.03 in 10.0 mi SSW 11.5 mph - N/A   Clear
10:55 PM 37.4 °F 30.3 °F 15.8 °F 41% 30.03 in 10.0 mi SSW 10.4 mph - N/A   Clear